This demonstration page uses our WeatherBlox Daily Observations layout. Learn more.

Left ArrowRight Arrow

Hourly Observations for January 11, 2019

Temp ( °F °C ) Dew Point ( °F °C ) Humidity (%) Winds ( mph kmh ) Pressure ( in mb ) Visibility ( mi km ) Precip ( " mm )
12:59 am 00:59 Clear 30 -1.1 16 -8.9 56 56 NW 9 15 30.21 1023 10 16 0.00 0.00
1:59 am 01:59 Clear 30 -1.1 16 -8.9 56 56 N 13 20 30.22 1023 10 16 0.00 0.00
2:59 am 02:59 Clear 30 -1.1 15 -9.4 54 54 NNW 16 26 30.24 1024 10 16 0.00 0.00
3:59 am 03:59 Clear 31 -0.6 15 -9.4 52 52 N 20 31 30.24 1024 10 16 0.00 0.00
4:59 am 04:59 Clear 30 -1.1 15 -9.4 54 54 NNW 15 24 30.26 1025 10 16 0.00 0.00
5:59 am 05:59 Clear 30 -1.1 15 -9.4 54 54 NNW 13 20 30.27 1025 10 16 0.00 0.00
6:59 am 06:59 Mostly Clear 29 -1.7 15 -9.4 56 56 NNW 15 24 30.28 1026 10 16 0.00 0.00
7:59 am 07:59 Mostly Sunny 30 -1.1 15 -9.4 54 54 NNW 14 22 30.31 1027 10 16 0.00 0.00
8:59 am 08:59 Mostly Sunny 32 0 16 -8.9 52 52 NNW 13 20 30.35 1028 10 16 0.00 0.00
9:59 am 09:59 Mostly Sunny 34 1.1 17 -8.3 50 50 N 14 22 30.37 1029 10 16 0.00 0.00
10:59 am 10:59 Mostly Sunny 35 1.7 18 -7.8 50 50 N 9 15 30.38 1029 10 16 0.00 0.00
11:59 am 11:59 Mostly Sunny 36 2.2 17 -8.3 46 46 N 10 17 30.36 1028 10 16 0.00 0.00
12:59 pm 12:59 Mostly Sunny 38 3.3 17 -8.3 43 43 N 3 6 30.35 1028 10 16 0.00 0.00
1:59 pm 13:59 Mostly Sunny 38 3.3 16 -8.9 41 41 NNW 5 7 30.34 1028 10 16 0.00 0.00
2:59 pm 14:59 Mostly Sunny 39 3.9 18 -7.8 43 43 VRB 5 7 30.35 1028 10 16 0.00 0.00
3:59 pm 15:59 Mostly Sunny 39 3.9 17 -8.3 41 41 NNE 9 15 30.36 1028 10 16 0.00 0.00
4:59 pm 16:59 Mostly Sunny 36 2.2 17 -8.3 46 46 NNE 5 7 30.38 1029 10 16 0.00 0.00
5:59 pm 17:59 Mostly Clear 35 1.7 17 -8.3 48 48 N 5 7 30.40 1029 10 16 0.00 0.00
6:59 pm 18:59 Clear 35 1.7 17 -8.3 48 48 N 6 9 30.42 1030 10 16 0.00 0.00
7:59 pm 19:59 Mostly Clear 36 2.2 18 -7.8 48 48 N 8 13 30.41 1030 10 16 0.00 0.00
8:59 pm 20:59 Partly Cloudy 36 2.2 18 -7.8 48 48 N 8 13 30.43 1031 10 16 0.00 0.00
9:59 pm 21:59 Partly Cloudy 36 2.2 15 -9.4 42 42 NNE 10 17 30.45 1031 10 16 0.00 0.00
10:59 pm 22:59 Partly Cloudy 36 2.2 16 -8.9 44 44 NNE 7 11 30.45 1031 10 16 0.00 0.00
11:59 pm 23:59 Mostly Clear 36 2.2 18 -7.8 48 48 NNE 8 13 30.44 1031 10 16 0.00 0.00

Powered by AerisWeather